Temp
-12 -12 -12 -12 -11 -11 -11 -11 -11 -11 -11 -11 -11 -11 -11 -11 -11 -11 -11 -11 -11 -11 -11 -10 -10 -11 -11 -12 -13 -15 -16 -17 -17 -17 -17 -18 -18 -18 -18 -18 -19 -18 -19 -19 -18 -18 -17
-12 -12 -12 -12 -12 -11 -11 -11 -11 -11 -11 -11 -11 -11 -11 -11 -11 -12 -11 -11 -11 -11 -11 -11 -11 -11 -11 -12 -13 -15 -16 -17 -17 -18 -18 -17 -17 -17 -18 -18 -19 -19 -19 -19 -19 -18 -18
-12 -12 -12 -12 -12 -11 -11 -11 -11 -11 -11 -12 -11 -11 -12 -11 -12 -12 -12 -12 -12 -11 -11 -11 -11 -11 -12 -13 -13 -15 -16 -17 -17 -18 -18 -18 -17 -18 -18 -18 -19 -19 -19 -19 -19 -18 -18
-13 -12 -12 -12 -12 -12 -12 -11 -11 -11 -12 -12 -12 -12 -12 -12 -12 -12 -12 -12 -12 -12 -12 -12 -12 -12 -12 -13 -14 -14 -16 -17 -17 -18 -18 -18 -18 -18 -18 -18 -19 -19 -19 -19 -19 -19 -18
-13 -13 -12 -12 -12 -12 -12 -12 -11 -12 -12 -12 -12 -12 -12 -12 -12 -12 -12 -12 -12 -12 -12 -12 -12 -12 -13 -13 -14 -14 -15 -16 -17 -17 -17 -18 -18 -18 -18 -19 -19 -19 -19 -19 -19 -19 -19
-13 -13 -13 -13 -12 -12 -12 -12 -12 -12 -12 -12 -12 -12 -12 -12 -12 -12 -12 -13 -13 -13 -12 -12 -12 -13 -13 -14 -14 -14 -15 -16 -17 -17 -17 -18 -18 -18 -18 -19 -19 -19 -19 -19 -19 -19 -19
-13 -13 -13 -13 -13 -13 -12 -12 -12 -12 -12 -12 -12 -12 -13 -12 -12 -12 -13 -13 -13 -13 -13 -13 -13 -13 -13 -14 -14 -15 -15 -16 -16 -17 -17 -18 -18 -18 -19 -19 -19 -19 -19 -19 -19 -19 -19
-14 -13 -13 -13 -13 -13 -13 -13 -13 -13 -13 -13 -13 -13 -13 -13 -13 -13 -13 -13 -13 -13 -13 -13 -13 -13 -14 -14 -15 -15 -15 -15 -16 -17 -17 -18 -18 -18 -19 -19 -19 -19 -19 -19 -19 -19 -19
-14 -14 -14 -14 -13 -13 -13 -13 -13 -13 -13 -13 -13 -13 -13 -13 -13 -13 -13 -13 -13 -13 -13 -13 -13 -13 -14 -14 -15 -15 -15 -16 -16 -16 -17 -17 -18 -18 -18 -19 -19 -19 -20 -20 -19 -19 -19
-14 -14 -14 -14 -14 -14 -14 -14 -14 -14 -13 -13 -13 -13 -13 -13 -13 -14 -14 -14 -14 -14 -13 -14 -14 -14 -14 -14 -15 -15 -16 -16 -16 -16 -17 -17 -18 -18 -18 -18 -19 -19 -19 -19 -19 -19 -19
-14 -14 -14 -14 -14 -14 -14 -14 -14 -14 -14 -14 -14 -14 -14 -14 -14 -14 -14 -14 -14 -14 -14 -14 -14 -14 -14 -14 -14 -15 -15 -16 -16 -16 -17 -17 -17 -17 -18 -19 -19 -20 -19 -19 -19 -19 -19
-15 -15 -15 -14 -15 -15 -14 -14 -15 -15 -15 -14 -14 -14 -14 -14 -14 -14 -14 -14 -14 -14 -14 -14 -14 -14 -14 -14 -14 -15 -15 -15 -16 -16 -17 -17 -17 -17 -18 -18 -19 -19 -19 -20 -20 -19 -19
-15 -15 -15 -15 -15 -15 -15 -15 -15 -15 -15 -15 -15 -15 -15 -14 -14 -14 -14 -14 -14 -15 -15 -15 -15 -15 -15 -15 -14 -15 -15 -15 -15 -16 -16 -17 -17 -17 -17 -18 -18 -18 -19 -19 -19 -20 -20
-17 -16 -15 -15 -15 -15 -15 -15 -15 -15 -15 -15 -15 -15 -15 -15 -15 -15 -15 -14 -15 -15 -15 -15 -15 -15 -15 -15 -15 -15 -15 -15 -15 -15 -16 -16 -17 -17 -17 -17 -17 -18 -18 -19 -19 -19 -19
-17 -17 -16 -16 -16 -16 -16 -16 -16 -16 -15 -15 -16 -16 -15 -15 -15 -15 -15 -15 -15 -15 -15 -15 -15 -15 -15 -15 -15 -15 -15 -15 -15 -15 -15 -16 -16 -16 -17 -17 -17 -17 -18 -18 -18 -19 -19
-17 -17 -16 -17 -17 -17 -16 -16 -16 -16 -16 -16 -16 -16 -16 -16 -16 -16 -16 -15 -15 -15 -15 -15 -15 -16 -16 -16 -16 -16 -15 -15 -15 -15 -15 -16 -16 -16 -16 -16 -17 -17 -17 -17 -18 -18 -18
-16 -16 -16 -17 -16 -17 -17 -16 -17 -17 -16 -16 -16 -16 -16 -16 -16 -16 -16 -16 -16 -16 -16 -16 -16 -16 -16 -16 -16 -16 -16 -16 -15 -15 -15 -15 -16 -16 -16 -16 -16 -16 -16 -17 -17 -17 -17
-17 -17 -17 -17 -17 -18 -17 -17 -18 -17 -17 -17 -17 -17 -17 -17 -16 -16 -16 -16 -16 -16 -16 -16 -16 -16 -16 -16 -16 -16 -16 -16 -16 -16 -15 -15 -15 -16 -16 -16 -16 -16 -16 -16 -16 -17 -17
-16 -16 -16 -16 -17 -17 -17 -17 -17 -17 -18 -18 -18 -17 -17 -17 -17 -17 -17 -17 -16 -16 -16 -16 -16 -16 -16 -16 -16 -16 -16 -16 -16 -16 -16 -15 -15 -15 -15 -15 -16 -16 -16 -16 -16 -16 -16
-16 -16 -16 -16 -16 -16 -17 -17 -17 -17 -17 -17 -17 -17 -17 -17 -17 -17 -17 -17 -17 -17 -17 -17 -17 -17 -17 -16 -16 -16 -16 -16 -16 -17 -16 -15 -15 -16 -16 -16 -15 -16 -16 -16 -16 -16 -16
-16 -16 -16 -16 -16 -16 -16 -16 -16 -17 -17 -17 -17 -17 -17 -17 -17 -18 -18 -17 -17 -17 -17 -17 -17 -17 -17 -17 -17 -17 -17 -17 -16 -17 -17 -16 -15 -16 -16 -16 -15 -16 -15 -16 -16 -16 -16
-16 -16 -16 -16 -16 -16 -16 -16 -16 -17 -16 -17 -17 -17 -17 -17 -17 -18 -17 -17 -17 -17 -17 -17 -17 -18 -18 -18 -18 -17 -17 -17 -17 -17 -17 -16 -16 -15 -15 -16 -16 -15 -16 -15 -15 -15 -15
-17 -16 -16 -16 -17 -17 -16 -17 -17 -17 -17 -16 -17 -17 -17 -16 -16 -17 -17 -17 -18 -18 -18 -18 -18 -18 -18 -18 -18 -18 -18 -17 -17 -17 -17 -17 -16 -15 -15 -16 -16 -15 -16 -15 -15 -16 -15
-17 -17 -17 -17 -17 -17 -17 -17 -17 -17 -18 -17 -17 -17 -17 -16 -16 -16 -17 -17 -18 -18 -18 -18 -18 -18 -18 -18 -18 -18 -18 -18 -18 -18 -18 -18 -17 -16 -15 -15 -16 -16 -16 -15 -15 -15 -15
-17 -17 -17 -17 -18 -18 -18 -18 -18 -18 -18 -18 -18 -17 -17 -17 -16 -16 -16 -17 -18 -18 -18 -19 -19 -19 -19 -19 -19 -18 -18 -18 -18 -18 -18 -18 -18 -17 -16 -16 -16 -16 -16 -16 -16 -15 -16
-18 -18 -18 -18 -18 -18 -18 -19 -19 -18 -18 -18 -18 -18 -18 -18 -16 -17 -16 -16 -17 -18 -19 -18 -19 -19 -19 -19 -19 -18 -18 -18 -18 -18 -18 -18 -18 -18 -17 -17 -16 -16 -17 -16 -16 -16 -16
-19 -19 -19 -19 -19 -19 -19 -19 -19 -19 -19 -19 -18 -19 -19 -18 -17 -18 -17 -17 -17 -18 -18 -18 -19 -19 -19 -19 -19 -19 -19 -19 -18 -18 -18 -18 -19 -18 -18 -17 -17 -17 -17 -17 -17 -16 -16
-20 -20 -20 -20 -20 -20 -20 -20 -20 -19 -19 -19 -19 -19 -19 -19 -18 -18 -18 -17 -17 -18 -19 -19 -20 -19 -19 -19 -19 -19 -19 -19 -19 -19 -18 -19 -19 -19 -18 -18 -17 -17 -17 -17 -17 -17 -17
-21 -21 -21 -21 -21 -21 -20 -20 -20 -20 -20 -19 -19 -19 -19 -19 -18 -18 -18 -18 -17 -17 -19 -19 -19 -19 -20 -20 -20 -20 -20 -19 -19 -19 -19 -19 -19 -19 -19 -18 -18 -18 -17 -17 -17 -17 -17
Height
5835 5836 5835 5834 5834 5833 5832 5831 5830 5829 5827 5826 5825 5824 5822 5819 5816 5814 5811 5808 5803 5799 5794 5788 5781 5773 5764 5754 5744 5730 5724 5718 5711 5705 5700 5695 5690 5684 5679 5675 5675 5674 5674 5673 5674 5676 5680
5833 5834 5834 5834 5833 5832 5831 5829 5828 5827 5826 5824 5823 5821 5820 5818 5815 5812 5809 5806 5802 5797 5792 5786 5779 5771 5762 5753 5741 5731 5724 5717 5709 5704 5698 5693 5689 5683 5678 5674 5673 5672 5671 5671 5670 5671 5673
5832 5832 5832 5832 5832 5831 5829 5828 5826 5825 5824 5822 5821 5819 5817 5815 5813 5810 5807 5804 5800 5795 5790 5784 5777 5769 5760 5753 5741 5732 5724 5716 5708 5702 5697 5692 5688 5683 5679 5675 5671 5669 5669 5667 5666 5666 5669
5830 5830 5830 5830 5829 5828 5827 5825 5824 5822 5822 5820 5819 5817 5815 5813 5810 5808 5805 5801 5798 5794 5789 5783 5776 5769 5760 5751 5742 5732 5724 5717 5709 5702 5697 5692 5687 5683 5678 5676 5672 5668 5666 5664 5663 5663 5663
5828 5828 5828 5827 5827 5826 5825 5824 5822 5820 5820 5818 5816 5814 5813 5810 5808 5805 5803 5799 5796 5792 5787 5782 5776 5768 5760 5751 5743 5734 5725 5718 5711 5703 5698 5693 5688 5683 5678 5675 5672 5668 5664 5662 5661 5660 5659
5825 5825 5825 5825 5825 5824 5823 5822 5821 5819 5817 5816 5814 5812 5810 5808 5806 5803 5801 5797 5794 5790 5786 5781 5775 5770 5761 5753 5743 5736 5728 5720 5713 5706 5699 5694 5688 5683 5678 5674 5670 5668 5665 5662 5659 5658 5655
5822 5822 5823 5823 5823 5822 5821 5820 5819 5817 5816 5814 5811 5810 5808 5806 5804 5801 5799 5796 5794 5790 5784 5780 5775 5768 5760 5754 5745 5737 5730 5722 5714 5708 5701 5695 5690 5684 5680 5675 5670 5666 5664 5662 5659 5654 5651
5819 5819 5820 5820 5820 5820 5819 5818 5817 5815 5813 5812 5809 5808 5805 5804 5801 5799 5796 5794 5791 5789 5784 5778 5774 5768 5761 5754 5748 5739 5732 5726 5717 5710 5704 5699 5692 5687 5682 5678 5672 5667 5664 5661 5659 5655 5652
5814 5815 5816 5816 5816 5816 5816 5815 5814 5812 5811 5810 5807 5806 5804 5801 5800 5797 5794 5792 5789 5786 5782 5778 5773 5767 5762 5756 5748 5742 5735 5728 5721 5713 5707 5701 5697 5691 5686 5680 5675 5671 5666 5662 5659 5656 5652
5810 5811 5812 5812 5813 5813 5812 5812 5811 5810 5808 5807 5806 5803 5802 5800 5799 5795 5792 5790 5787 5784 5781 5778 5773 5767 5762 5756 5750 5744 5737 5732 5725 5718 5711 5706 5700 5695 5689 5683 5678 5673 5669 5665 5660 5658 5655
5804 5805 5806 5806 5807 5808 5808 5808 5809 5807 5806 5804 5803 5801 5799 5797 5796 5794 5791 5787 5785 5783 5780 5778 5771 5767 5762 5757 5752 5745 5740 5733 5728 5722 5716 5710 5703 5698 5692 5688 5683 5678 5672 5667 5662 5659 5658
5798 5800 5801 5802 5802 5803 5803 5803 5804 5804 5803 5802 5800 5799 5796 5795 5793 5792 5789 5786 5784 5782 5777 5774 5770 5766 5762 5757 5752 5747 5741 5735 5730 5725 5719 5713 5707 5702 5697 5692 5687 5682 5677 5671 5666 5662 5661
5792 5793 5795 5796 5797 5797 5797 5797 5798 5799 5798 5798 5797 5795 5794 5792 5791 5788 5786 5786 5783 5779 5776 5773 5769 5765 5761 5757 5752 5747 5742 5737 5732 5728 5722 5717 5711 5706 5701 5697 5692 5686 5680 5675 5671 5667 5666
5784 5786 5787 5789 5790 5790 5790 5791 5792 5792 5793 5793 5792 5791 5790 5788 5786 5786 5783 5783 5781 5778 5774 5771 5767 5763 5760 5757 5752 5747 5742 5737 5733 5728 5724 5719 5715 5709 5704 5700 5695 5690 5685 5679 5676 5673 5670
5777 5779 5780 5782 5783 5784 5783 5784 5785 5785 5785 5786 5786 5786 5785 5784 5783 5781 5780 5778 5777 5775 5773 5770 5766 5762 5758 5755 5751 5747 5742 5738 5733 5729 5725 5720 5716 5712 5707 5702 5699 5694 5689 5686 5681 5677 5674
5769 5770 5772 5774 5775 5776 5776 5777 5777 5778 5778 5778 5778 5779 5779 5779 5778 5777 5776 5773 5771 5770 5768 5766 5764 5761 5757 5753 5749 5745 5741 5737 5733 5729 5725 5722 5719 5714 5709 5706 5701 5697 5694 5690 5685 5681 5678
5761 5761 5763 5764 5766 5766 5767 5769 5769 5769 5769 5771 5770 5771 5771 5771 5771 5771 5770 5768 5766 5765 5764 5763 5760 5757 5754 5752 5748 5743 5740 5736 5732 5728 5724 5721 5718 5715 5711 5707 5703 5700 5696 5693 5690 5686 5683
5750 5751 5752 5754 5755 5755 5756 5758 5759 5760 5760 5760 5762 5762 5764 5763 5763 5763 5763 5761 5761 5759 5758 5757 5755 5753 5750 5747 5745 5741 5737 5733 5729 5725 5722 5719 5716 5714 5711 5708 5705 5701 5698 5695 5692 5691 5686
5740 5740 5741 5742 5744 5744 5744 5745 5746 5748 5748 5749 5750 5752 5754 5753 5753 5755 5755 5754 5752 5753 5751 5749 5748 5747 5745 5742 5740 5737 5734 5731 5726 5723 5719 5716 5714 5711 5709 5709 5706 5702 5699 5696 5693 5691 5689
5729 5729 5731 5731 5732 5732 5733 5734 5734 5735 5736 5737 5737 5737 5742 5743 5744 5745 5745 5745 5745 5745 5743 5742 5741 5740 5739 5737 5734 5732 5729 5726 5723 5719 5715 5712 5711 5708 5706 5704 5702 5700 5698 5695 5693 5691 5689
5716 5717 5719 5719 5719 5720 5721 5722 5722 5722 5723 5724 5724 5724 5725 5729 5733 5734 5733 5734 5736 5737 5735 5734 5734 5732 5731 5730 5727 5726 5723 5721 5718 5715 5711 5708 5706 5703 5702 5699 5697 5696 5695 5694 5692 5690 5688
5700 5701 5702 5704 5705 5707 5707 5708 5709 5709 5709 5710 5710 5711 5712 5718 5718 5720 5721 5723 5725 5727 5725 5725 5725 5723 5723 5723 5719 5717 5716 5713 5711 5709 5704 5702 5698 5696 5697 5693 5691 5691 5690 5690 5689 5688 5687
5686 5687 5687 5688 5689 5690 5691 5692 5692 5692 5692 5694 5698 5697 5696 5703 5703 5705 5708 5712 5714 5714 5716 5713 5714 5713 5713 5714 5710 5709 5707 5706 5703 5700 5698 5695 5691 5688 5690 5686 5684 5686 5685 5684 5684 5683 5683
5669 5670 5670 5672 5672 5674 5675 5675 5676 5675 5675 5676 5681 5682 5679 5688 5687 5692 5695 5695 5699 5702 5702 5701 5702 5702 5704 5702 5701 5699 5698 5697 5696 5694 5692 5686 5683 5680 5680 5679 5677 5678 5677 5678 5678 5678 5677
5650 5651 5651 5651 5653 5655 5656 5657 5658 5657 5656 5658 5661 5661 5662 5667 5672 5678 5677 5681 5684 5685 5686 5688 5690 5691 5690 5690 5689 5688 5688 5687 5686 5686 5684 5680 5676 5672 5671 5671 5671 5668 5670 5670 5671 5672 5671
5632 5632 5630 5631 5632 5635 5635 5637 5638 5639 5637 5637 5644 5644 5642 5643 5657 5661 5661 5666 5667 5668 5671 5675 5678 5678 5679 5678 5678 5675 5676 5676 5674 5674 5674 5671 5668 5667 5664 5662 5661 5661 5661 5662 5662 5660 5663
5611 5610 5610 5612 5612 5612 5614 5617 5618 5618 5617 5616 5630 5624 5622 5620 5643 5638 5644 5648 5652 5655 5654 5656 5664 5664 5664 5665 5665 5665 5666 5666 5665 5664 5664 5662 5658 5658 5655 5653 5653 5653 5654 5653 5652 5656 5653
5591 5590 5588 5588 5590 5592 5592 5594 5596 5598 5598 5594 5610 5606 5605 5605 5620 5620 5626 5629 5633 5638 5639 5641 5646 5647 5650 5651 5653 5653 5654 5653 5654 5654 5653 5653 5649 5648 5646 5645 5644 5645 5644 5645 5643 5642 5642
5566 5566 5566 5565 5566 5568 5571 5571 5574 5576 5578 5575 5587 5587 5589 5579 5602 5601 5606 5613 5615 5618 5622 5621 5626 5631 5635 5636 5639 5641 5641 5639 5641 5640 5642 5641 5641 5636 5639 5635 5635 5635 5634 5634 5633 5632 5632
Wind_Speed
11 9 7 5 5 5 6 6 7 7 6 6 7 9 11 12 14 16 18 21 24 27 29 32 35 38 43 48 50 40 29 28 29 28 25 20 26 24 24 20 19 18 19 21 34 38 42
12 10 8 7 7 7 7 7 9 9 9 7 8 10 13 15 15 16 18 21 24 26 28 31 35 37 41 47 51 41 30 28 29 28 25 24 26 23 24 17 13 15 16 17 20 33 40
13 11 9 8 9 8 9 9 9 11 11 10 9 10 12 14 17 17 18 20 23 24 27 30 34 36 40 44 48 41 32 30 29 27 22 21 20 18 22 17 10 11 14 15 19 21 34
14 12 10 9 10 10 10 10 11 11 11 11 11 11 11 13 15 16 18 19 22 24 26 29 32 34 38 42 44 42 34 31 28 24 21 20 19 21 18 16 13 11 14 16 15 15 19
16 14 12 11 11 11 11 11 10 10 11 11 11 12 13 13 15 16 18 19 20 23 25 28 30 32 35 39 42 42 36 29 28 24 21 18 18 19 19 18 16 16 11 11 13 15 20
17 16 14 13 14 12 12 11 10 9 10 11 12 12 13 14 15 16 17 18 19 21 23 26 29 30 33 37 39 39 37 31 27 26 23 20 19 20 20 18 16 15 9 9 10 14 19
19 18 17 15 14 14 12 11 11 10 11 11 11 12 13 14 15 15 17 18 19 20 22 24 28 30 33 34 37 37 36 33 30 28 26 23 22 21 20 18 13 11 13 10 12 13 12
21 20 19 17 15 15 13 12 11 10 10 11 11 12 13 14 14 14 15 17 19 19 22 22 26 28 31 31 33 34 35 33 32 29 26 23 24 21 20 20 18 11 10 12 12 10 7
23 21 20 18 17 16 14 14 12 11 10 11 10 12 13 14 15 15 15 15 17 19 19 21 23 26 29 30 31 32 33 33 31 30 30 26 24 23 20 19 19 18 15 15 9 11 6
26 24 22 20 19 17 16 16 14 13 11 11 11 10 12 14 15 14 15 15 16 18 18 20 22 24 27 29 30 30 30 31 30 29 28 28 27 25 21 20 19 16 16 16 12 8 8
29 28 26 24 22 21 19 19 19 17 15 13 12 11 10 12 14 15 15 15 15 17 19 20 22 24 26 28 29 29 29 29 29 29 29 28 26 26 24 23 23 22 21 19 15 10 10
32 30 30 29 27 26 24 22 22 21 20 18 15 14 12 12 13 14 16 15 16 16 17 19 21 22 25 27 28 29 29 29 28 27 25 27 29 24 27 25 25 26 24 20 18 15 11
32 31 33 32 31 29 28 26 26 26 24 22 19 17 16 14 14 15 15 16 15 15 16 18 20 22 24 25 27 28 29 29 28 26 26 23 23 23 21 24 25 27 28 25 22 16 9
34 33 31 33 33 31 30 30 29 27 29 27 25 21 20 19 16 16 16 17 17 19 19 19 19 21 25 26 25 26 27 27 28 27 25 25 20 22 22 23 24 26 26 25 21 14 10
34 34 33 34 31 33 31 32 30 30 29 30 29 27 25 23 22 19 18 19 19 20 22 22 23 24 27 27 25 24 24 26 27 28 27 25 23 21 21 21 22 22 22 20 14 8 10
38 38 37 37 37 40 34 32 30 32 34 32 32 32 30 29 27 25 23 22 22 22 22 23 25 27 28 28 26 25 24 24 25 26 26 25 22 22 20 18 19 18 19 19 16 12 10
40 39 40 44 44 40 36 36 36 35 35 35 34 34 33 34 32 31 28 28 26 27 25 25 26 27 27 29 32 29 27 25 23 23 24 25 23 24 21 19 16 14 14 14 13 9 7
41 43 47 48 47 45 41 46 49 43 43 40 39 41 35 37 38 35 34 33 32 30 32 32 31 31 29 32 30 29 27 28 27 24 23 22 24 22 22 19 17 13 11 10 9 7 3
39 39 41 44 48 48 47 45 43 45 48 46 48 45 45 39 39 38 38 37 36 34 33 33 33 30 30 31 33 35 34 30 30 27 25 24 21 23 21 19 16 16 11 9 6 5 5
47 46 46 44 44 44 46 50 52 52 50 49 50 53 45 46 43 41 40 41 39 37 37 36 34 33 33 32 35 35 33 33 36 33 28 26 23 24 24 24 19 17 13 11 9 7 6
54 54 54 53 51 50 50 48 48 51 53 55 56 55 53 50 46 49 48 48 42 40 40 41 39 39 40 36 37 37 36 38 33 36 33 29 25 24 23 25 24 20 18 15 14 11 9
51 52 52 53 54 56 57 57 56 55 53 52 54 55 56 54 53 50 50 52 46 47 49 43 39 37 36 36 40 41 42 43 41 42 36 32 29 27 22 27 30 24 23 19 17 15 14
49 50 50 50 52 53 55 57 58 59 61 60 55 54 56 53 56 57 55 51 47 50 48 51 47 48 45 45 48 46 44 45 46 42 38 34 34 31 24 27 30 28 26 25 21 19 17
55 56 56 55 56 55 55 56 58 60 62 64 62 60 60 56 56 54 56 56 54 52 50 53 53 50 46 47 47 46 47 45 43 38 38 38 37 34 28 26 30 30 30 29 27 26 25
67 67 65 65 61 59 59 57 59 60 62 63 63 65 63 63 60 56 55 53 54 54 55 54 57 53 47 48 50 50 48 43 44 43 39 35 36 36 34 28 28 32 31 31 32 32 31
69 72 71 72 74 68 63 60 60 60 62 64 63 63 64 65 62 59 59 57 55 55 56 56 53 51 51 51 51 53 48 47 46 41 40 40 41 37 34 34 32 30 30 32 33 36 35
77 75 77 75 75 77 71 66 63 63 64 66 61 63 65 69 59 63 61 59 58 56 54 55 54 55 53 53 53 53 48 46 46 43 42 42 42 39 34 35 34 31 29 32 35 36 35
77 74 73 72 71 70 69 67 64 64 62 63 57 63 65 66 60 62 61 62 60 58 59 56 56 58 57 57 54 54 51 50 46 46 43 39 39 37 34 35 35 32 31 30 34 36 38
73 71 72 73 71 68 70 70 67 64 62 65 58 62 61 67 59 61 60 59 61 60 61 61 59 58 57 57 54 53 53 54 50 49 46 43 38 40 36 37 36 35 35 34 35 36 37
Wind_Direction
224 234 242 252 277 301 310 321 328 334 343 335 321 318 318 323 329 332 334 339 341 344 346 346 348 350 353 359 5 10 352 343 346 347 340 341 338 334 325 305 273 269 267 265 241 238 237
227 238 254 270 279 299 311 327 328 324 320 322 323 316 315 317 322 330 334 339 340 343 347 347 349 353 357 2 8 14 4 350 345 345 347 332 338 352 353 337 291 273 264 270 267 245 238
237 240 251 270 280 293 305 319 326 325 315 312 311 316 315 316 318 325 333 338 338 343 347 349 351 357 2 5 13 18 10 3 356 351 352 353 352 354 356 359 327 288 269 270 263 262 243
240 245 256 270 281 291 304 315 323 320 312 309 309 311 316 317 320 324 328 334 337 342 346 350 353 359 5 10 15 22 16 8 10 3 4 1 5 358 356 349 339 308 290 281 271 264 255
242 246 258 275 282 290 299 309 315 321 313 308 306 307 311 315 318 320 323 331 335 341 344 350 354 359 7 11 18 25 24 17 17 17 9 6 356 349 344 342 352 349 320 302 290 275 255
244 249 259 278 286 287 294 303 309 317 314 312 311 309 311 314 315 317 321 327 333 340 342 348 352 359 5 13 19 25 29 24 20 20 17 6 355 349 353 352 357 342 338 332 325 301 267
251 252 260 273 284 284 287 296 303 315 316 314 312 310 312 316 317 317 319 326 331 336 340 346 352 358 4 10 18 26 29 28 25 19 17 13 8 6 357 354 356 347 343 330 325 323 299
254 257 263 271 279 280 283 289 300 311 315 315 316 314 314 315 317 316 323 331 334 339 336 341 349 356 2 7 14 26 29 28 27 23 17 15 12 11 8 6 5 9 356 348 340 335 354
254 259 261 268 274 275 273 278 287 296 306 315 321 324 322 317 317 318 323 332 337 339 338 340 345 352 359 5 9 16 24 29 30 29 25 22 18 18 14 9 14 14 15 1 5 14 331
255 258 261 266 271 275 271 272 276 283 290 300 312 322 327 328 322 324 324 329 333 338 343 346 346 350 355 1 6 9 14 22 30 31 29 27 28 25 23 17 15 20 19 17 11 22 11
252 256 259 262 266 272 274 269 271 275 279 283 291 302 317 325 329 334 336 336 337 339 343 348 357 355 352 356 360 5 8 10 17 28 32 33 29 25 25 26 27 27 30 28 25 17 29
249 254 260 262 263 266 269 270 267 270 275 278 282 290 299 310 318 325 333 337 339 343 344 347 348 352 355 355 354 358 3 7 7 13 22 32 37 36 34 32 28 23 22 24 28 36 43
251 252 256 262 263 266 268 269 269 266 267 271 277 282 288 293 303 310 318 322 331 340 344 350 353 353 352 349 352 352 355 358 4 6 8 13 20 33 28 22 20 17 14 21 28 25 27
249 257 257 261 264 264 266 267 267 267 267 269 273 276 280 285 288 296 304 307 317 322 331 338 346 350 352 350 347 347 350 351 354 359 2 2 5 8 7 8 9 5 11 18 16 30 46
257 258 261 257 267 269 268 267 267 268 267 267 270 274 276 278 283 285 290 297 305 310 314 321 329 335 338 341 346 345 344 346 345 349 352 358 357 359 3 4 10 13 17 17 21 29 54
261 257 261 264 265 262 269 269 264 269 271 268 269 267 273 275 277 278 283 288 294 299 305 310 316 324 329 337 342 341 339 339 340 339 341 347 350 353 354 1 7 13 14 18 18 30 65
259 263 264 265 266 262 262 264 259 267 266 268 268 269 266 269 272 275 278 281 286 292 296 301 308 314 317 321 327 330 330 334 327 331 331 332 340 340 347 352 356 2 10 15 19 22 33
265 264 262 262 264 267 268 262 265 268 266 264 269 269 270 267 267 270 274 276 279 284 289 292 299 303 306 310 317 327 332 328 328 319 322 321 322 331 335 337 343 356 358 1 7 12 8
272 270 267 265 266 267 266 266 267 265 268 269 269 265 266 267 269 272 271 273 276 280 282 287 292 294 299 301 307 314 318 324 330 321 312 312 311 310 318 323 328 327 339 339 332 330 321
270 272 272 272 271 270 268 268 267 266 266 266 267 274 271 262 264 269 272 271 275 278 280 282 285 287 293 293 299 307 310 316 322 324 312 304 307 300 301 307 315 315 316 311 315 299 281
267 266 266 268 269 272 273 271 269 269 267 267 268 269 270 269 267 263 265 266 272 276 278 281 281 287 289 287 292 297 302 306 314 318 315 305 298 297 290 287 290 299 302 301 292 289 288
269 269 269 267 266 265 266 267 271 271 270 268 269 270 271 267 268 264 266 269 272 271 274 276 282 282 287 289 290 293 298 300 306 312 307 306 299 289 291 277 276 278 289 294 292 286 281
271 271 272 273 273 273 270 266 265 266 267 268 268 270 270 270 266 266 268 267 266 266 273 272 271 277 285 286 289 290 294 297 300 308 305 302 303 289 290 283 269 271 271 277 281 283 282
275 276 277 275 272 269 268 267 266 264 264 264 264 263 265 266 267 267 268 267 263 265 265 269 273 274 279 284 286 288 291 295 301 302 308 304 301 294 290 287 282 268 267 265 270 274 277
280 280 279 277 276 272 271 269 266 264 263 262 262 261 260 261 263 263 264 265 262 260 264 266 268 275 271 275 280 286 291 293 294 295 299 302 308 298 291 287 285 281 268 272 263 265 266
276 275 277 278 276 272 272 272 267 263 261 260 259 261 260 257 256 259 261 263 262 259 259 262 265 268 269 270 270 279 286 292 297 297 299 301 304 301 293 288 288 287 279 270 272 266 262
276 274 271 270 271 272 271 270 268 263 259 258 257 258 257 259 254 256 256 258 260 259 257 259 261 262 264 267 270 275 281 285 289 293 298 302 299 296 290 282 282 283 279 275 274 277 274
277 275 273 272 268 267 269 268 265 263 262 261 255 257 257 259 255 254 253 253 254 255 255 255 257 258 260 263 268 272 274 281 284 287 293 299 297 295 285 278 275 281 278 273 274 276 277
275 274 273 271 270 269 267 267 266 265 262 260 257 257 256 256 254 253 252 250 252 253 250 249 251 256 259 260 264 268 270 275 279 285 290 291 291 289 284 277 275 274 274 273 270 267 265